Terminal Aerodrome Forecast
Issued by NWS

Home | Current Version | Previous Version | Text Only | Print | Product List | Glossary On
Versions: 1 2 3 4 5 6 7 8 9 10 11 12 13 14 15 16 17
000
FTUS43 KFGF 052320
TAFDVL
TAF
KDVL 052320Z 0600/0624 35016KT 3SM HZ SCT030
      TEMPO 0600/0602 BKN030
     FM061500 36013KT 5SM HZ SCT050
      AMD LTD TO CLD VIS AND WIND=

USA.gov is the U.S. government's official web portal to all federal, state and local government web resources and services.